Time,TemperatureF,DewpointF,PressureIn,WindDirection,WindDirectionDegrees,WindSpeedMPH,WindSpeedGustMPH,Humidity,HourlyPrecipIn,Conditions,Clouds,dailyrainin,SoftwareType,DateUTC
2013-07-16 00:01:00,72.0,69.0,30.31,South,174,0.0,0.0,91,0.00,,,0.07,,2013-07-16 04:01:00,
2013-07-16 00:12:00,72.0,69.0,30.31,South,174,0.0,0.0,91,0.00,,,0.07,,2013-07-16 04:12:00,
2013-07-16 00:32:00,72.0,69.0,30.32,South,174,0.0,0.0,91,0.00,,,0.07,,2013-07-16 04:32:00,
2013-07-16 01:01:00,73.0,70.0,30.31,South,174,0.0,0.0,91,0.00,,,0.07,,2013-07-16 05:01:00,
2013-07-16 01:32:00,73.0,70.0,30.31,South,174,0.0,1.0,91,0.00,,,0.07,,2013-07-16 05:32:00,
2013-07-16 01:43:00,72.0,70.0,30.31,South,174,0.0,2.0,92,0.00,,,0.07,,2013-07-16 05:43:00,
2013-07-16 01:52:00,72.0,70.0,30.31,South,174,0.0,2.0,92,0.00,,,0.07,,2013-07-16 05:52:00,
2013-07-16 02:01:00,73.0,70.0,30.31,South,182,0.0,2.0,91,0.00,,,0.07,,2013-07-16 06:01:00,
2013-07-16 02:11:00,73.0,70.0,30.31,South,182,0.0,2.0,91,0.00,,,0.07,,2013-07-16 06:11:00,
2013-07-16 02:32:00,73.0,70.0,30.31,South,182,0.0,1.0,90,0.00,,,0.07,,2013-07-16 06:32:00,
2013-07-16 02:43:00,72.0,69.0,30.31,South,182,0.0,0.0,91,0.00,,,0.07,,2013-07-16 06:43:00,
2013-07-16 02:52:00,72.0,69.0,30.31,South,182,0.0,0.0,91,0.00,,,0.07,,2013-07-16 06:52:00,
2013-07-16 03:01:00,72.0,69.0,30.31,South,182,0.0,0.0,91,0.00,,,0.07,,2013-07-16 07:01:00,
2013-07-16 03:12:00,72.0,70.0,30.31,South,182,0.0,0.0,92,0.00,,,0.07,,2013-07-16 07:12:00,
2013-07-16 03:32:00,72.0,70.0,30.31,South,182,0.0,0.0,92,0.00,,,0.07,,2013-07-16 07:32:00,
2013-07-16 03:43:00,72.0,70.0,30.30,South,182,0.0,0.0,93,0.00,,,0.07,,2013-07-16 07:43:00,
2013-07-16 03:52:00,71.0,69.0,30.31,South,182,0.0,0.0,93,0.00,,,0.07,,2013-07-16 07:52:00,
2013-07-16 04:01:00,71.0,69.0,30.31,South,182,0.0,0.0,93,0.00,,,0.07,,2013-07-16 08:01:00,
2013-07-16 04:11:00,72.0,70.0,30.30,South,182,0.0,0.0,92,0.00,,,0.07,,2013-07-16 08:11:00,
2013-07-16 04:22:00,72.0,70.0,30.30,South,182,0.0,0.0,92,0.00,,,0.07,,2013-07-16 08:22:00,
2013-07-16 04:32:00,71.0,69.0,30.30,South,182,0.0,0.0,93,0.00,,,0.07,,2013-07-16 08:32:00,
2013-07-16 04:43:00,71.0,69.0,30.30,South,182,0.0,0.0,93,0.00,,,0.07,,2013-07-16 08:43:00,
2013-07-16 04:52:00,71.0,69.0,30.30,South,182,0.0,0.0,93,0.00,,,0.07,,2013-07-16 08:52:00,
2013-07-16 05:01:00,71.0,69.0,30.30,South,182,0.0,0.0,93,0.00,,,0.07,,2013-07-16 09:01:00,
2013-07-16 05:12:00,71.0,69.0,30.30,South,182,0.0,0.0,93,0.00,,,0.07,,2013-07-16 09:12:00,
2013-07-16 05:32:00,71.0,69.0,30.30,South,182,0.0,0.0,94,0.00,,,0.07,,2013-07-16 09:32:00,
2013-07-16 05:42:00,71.0,69.0,30.31,South,182,0.0,0.0,94,0.00,,,0.07,,2013-07-16 09:42:00,
2013-07-16 05:52:00,71.0,69.0,30.31,South,182,0.0,0.0,94,0.00,,,0.07,,2013-07-16 09:52:00,
2013-07-16 06:01:00,70.0,68.0,30.31,South,182,0.0,0.0,94,0.00,,,0.07,,2013-07-16 10:01:00,
2013-07-16 06:22:00,71.0,69.0,30.32,South,182,0.0,0.0,94,0.00,,,0.07,,2013-07-16 10:22:00,
2013-07-16 06:31:00,71.0,69.0,30.32,South,182,0.0,0.0,95,0.00,,,0.07,,2013-07-16 10:31:00,
2013-07-16 06:43:00,70.0,68.0,30.32,South,182,0.0,0.0,95,0.00,,,0.07,,2013-07-16 10:43:00,
2013-07-16 06:52:00,70.0,68.0,30.32,South,182,0.0,0.0,95,0.00,,,0.07,,2013-07-16 10:52:00,
2013-07-16 07:01:00,70.0,68.0,30.32,South,182,0.0,0.0,95,0.00,,,0.07,,2013-07-16 11:01:00,
2013-07-16 07:22:00,70.0,69.0,30.32,South,182,0.0,0.0,96,0.00,,,0.07,,2013-07-16 11:22:00,
2013-07-16 07:32:00,70.0,69.0,30.32,South,182,0.0,0.0,96,0.00,,,0.07,,2013-07-16 11:32:00,
2013-07-16 08:01:00,71.0,70.0,30.33,South,182,0.0,0.0,96,0.00,,,0.07,,2013-07-16 12:01:00,
2013-07-16 08:22:00,71.0,70.0,30.33,South,182,0.0,0.0,96,0.00,,,0.07,,2013-07-16 12:22:00,
2013-07-16 08:32:00,72.0,71.0,30.34,South,182,0.0,0.0,96,0.00,,,0.07,,2013-07-16 12:32:00,
2013-07-16 09:11:00,73.0,72.0,30.35,South,182,0.0,0.0,97,0.00,,,0.07,,2013-07-16 13:11:00,
2013-07-16 09:32:00,73.0,72.0,30.35,South,182,0.0,0.0,97,0.00,,,0.07,,2013-07-16 13:32:00,
2013-07-16 10:02:00,74.0,73.0,30.35,SSE,154,0.0,1.0,96,0.00,,,0.07,,2013-07-16 14:02:00,
2013-07-16 10:32:00,76.0,74.0,30.35,NE,47,0.0,2.0,95,0.00,,,0.07,,2013-07-16 14:32:00,
2013-07-16 10:43:00,77.0,75.0,30.35,NE,47,0.0,0.0,94,0.00,,,0.07,,2013-07-16 14:43:00,
2013-07-16 10:52:00,77.0,75.0,30.35,NE,47,0.0,0.0,94,0.00,,,0.07,,2013-07-16 14:52:00,
2013-07-16 11:01:00,78.0,75.0,30.35,NE,47,0.0,0.0,92,0.00,,,0.07,,2013-07-16 15:01:00,
2013-07-16 11:11:00,79.0,75.0,30.35,NE,47,0.0,0.0,89,0.00,,,0.07,,2013-07-16 15:11:00,
2013-07-16 11:32:00,80.0,75.0,30.35,NE,47,0.0,0.0,86,0.00,,,0.07,,2013-07-16 15:32:00,
2013-07-16 11:43:00,80.0,74.0,30.35,North,360,0.0,0.0,82,0.00,,,0.07,,2013-07-16 15:43:00,
2013-07-16 12:01:00,80.0,72.0,30.35,SE,133,0.0,2.0,76,0.00,,,0.07,,2013-07-16 16:01:00,
2013-07-16 12:22:00,80.0,71.0,30.35,East,93,0.0,2.0,75,0.00,,,0.07,,2013-07-16 16:22:00,
2013-07-16 12:32:00,81.0,71.0,30.35,East,93,0.0,2.0,72,0.00,,,0.07,,2013-07-16 16:32:00,
2013-07-16 12:43:00,82.0,71.0,30.35,East,93,0.0,2.0,70,0.00,,,0.07,,2013-07-16 16:43:00,
2013-07-16 12:52:00,82.0,71.0,30.35,East,93,0.0,2.0,70,0.00,,,0.07,,2013-07-16 16:52:00,
2013-07-16 13:02:00,82.0,71.0,30.34,NNE,27,0.0,5.0,70,0.00,,,0.07,,2013-07-16 17:02:00,
2013-07-16 13:12:00,83.0,73.0,30.34,NNE,27,0.0,3.0,71,0.00,,,0.07,,2013-07-16 17:12:00,
2013-07-16 13:33:00,84.0,71.0,30.34,NNE,27,0.0,1.0,66,0.00,,,0.07,,2013-07-16 17:33:00,
2013-07-16 13:43:00,84.0,71.0,30.36,ESE,104,0.0,3.0,66,0.01,,,0.08,,2013-07-16 17:43:00,
2013-07-16 14:01:00,85.0,71.0,30.36,ESE,103,0.0,1.0,63,0.01,,,0.08,,2013-07-16 18:01:00,
2013-07-16 14:11:00,85.0,72.0,30.35,ENE,58,0.0,2.0,65,0.01,,,0.08,,2013-07-16 18:11:00,
2013-07-16 14:32:00,86.0,71.0,30.35,South,175,0.0,3.0,62,0.01,,,0.08,,2013-07-16 18:32:00,
2013-07-16 14:43:00,85.0,70.0,30.35,ESE,123,0.0,3.0,62,0.00,,,0.08,,2013-07-16 18:43:00,
2013-07-16 15:01:00,85.0,70.0,30.31,East,83,0.0,3.0,62,0.00,,,0.08,,2013-07-16 19:01:00,
2013-07-16 15:11:00,86.0,71.0,30.34,ENE,69,1.0,5.0,61,0.00,,,0.08,,2013-07-16 19:11:00,
2013-07-16 15:32:00,86.0,72.0,30.33,NE,35,0.0,2.0,63,0.00,,,0.08,,2013-07-16 19:32:00,
2013-07-16 16:03:00,87.0,71.0,30.32,ENE,64,1.0,5.0,59,0.00,,,0.08,,2013-07-16 20:03:00,
2013-07-16 16:22:00,86.0,72.0,30.32,ENE,64,0.0,2.0,64,0.00,,,0.08,,2013-07-16 20:22:00,
2013-07-16 16:32:00,86.0,72.0,30.32,NNE,21,1.0,3.0,63,0.00,,,0.08,,2013-07-16 20:32:00,
2013-07-16 16:43:00,86.0,72.0,30.31,NNE,23,0.0,3.0,64,0.00,,,0.08,,2013-07-16 20:43:00,
2013-07-16 16:52:00,86.0,72.0,30.31,NNE,23,0.0,3.0,64,0.00,,,0.08,,2013-07-16 20:52:00,
2013-07-16 17:01:00,86.0,71.0,30.31,NNE,23,1.0,2.0,62,0.00,,,0.08,,2013-07-16 21:01:00,
2013-07-16 17:11:00,86.0,71.0,30.31,NNE,23,1.0,2.0,62,0.00,,,0.08,,2013-07-16 21:11:00,
2013-07-16 17:22:00,87.0,72.0,30.27,NNW,344,0.0,6.0,61,0.00,,,0.08,,2013-07-16 21:22:00,
2013-07-16 17:32:00,87.0,71.0,30.30,North,360,0.0,2.0,60,0.00,,,0.08,,2013-07-16 21:32:00,
2013-07-16 17:52:00,87.0,71.0,30.30,NNE,18,0.0,1.0,59,0.00,,,0.08,,2013-07-16 21:52:00,
2013-07-16 18:01:00,87.0,71.0,30.30,NNE,18,0.0,1.0,59,0.00,,,0.08,,2013-07-16 22:01:00,
2013-07-16 18:22:00,86.0,70.0,30.27,NNE,18,0.0,1.0,60,0.00,,,0.08,,2013-07-16 22:22:00,
2013-07-16 18:33:00,87.0,71.0,30.29,NNE,18,0.0,2.0,59,0.00,,,0.08,,2013-07-16 22:33:00,
2013-07-16 18:43:00,87.0,71.0,30.27,NNE,14,0.0,3.0,59,0.00,,,0.08,,2013-07-16 22:43:00,
2013-07-16 18:52:00,87.0,71.0,30.27,NNE,14,0.0,3.0,59,0.00,,,0.08,,2013-07-16 22:52:00,
2013-07-16 19:01:00,85.0,72.0,30.30,SSE,155,0.0,5.0,65,0.00,,,0.08,,2013-07-16 23:01:00,
2013-07-16 19:11:00,84.0,72.0,30.26,SSE,152,0.0,0.0,68,0.00,,,0.08,,2013-07-16 23:11:00,
2013-07-16 19:32:00,84.0,72.0,30.26,NNE,31,0.0,0.0,68,0.00,,,0.08,,2013-07-16 23:32:00,
2013-07-16 19:43:00,84.0,71.0,30.27,NNE,31,0.0,0.0,66,0.00,,,0.08,,2013-07-16 23:43:00,
2013-07-16 19:52:00,84.0,73.0,30.26,NNE,31,0.0,0.0,70,0.00,,,0.08,,2013-07-16 23:52:00,
2013-07-16 20:01:00,84.0,73.0,30.26,NNE,31,0.0,0.0,70,0.00,,,0.08,,2013-07-17 00:01:00,
2013-07-16 20:11:00,84.0,73.0,30.27,NNE,31,0.0,0.0,70,0.00,,,0.08,,2013-07-17 00:11:00,
2013-07-16 20:33:00,84.0,74.0,30.27,NNE,31,0.0,0.0,72,0.00,,,0.08,,2013-07-17 00:33:00,
2013-07-16 20:42:00,83.0,74.0,30.29,NNE,31,0.0,0.0,75,0.00,,,0.08,,2013-07-17 00:42:00,
2013-07-16 20:52:00,83.0,75.0,30.30,NNE,31,0.0,0.0,77,0.00,,,0.08,,2013-07-17 00:52:00,
2013-07-16 21:01:00,83.0,75.0,30.30,NNE,31,0.0,0.0,77,0.00,,,0.08,,2013-07-17 01:01:00,
2013-07-16 21:11:00,82.0,74.0,30.30,NNE,31,0.0,0.0,76,0.00,,,0.08,,2013-07-17 01:11:00,
2013-07-16 21:32:00,81.0,73.0,30.28,NNE,31,0.0,0.0,78,0.00,,,0.08,,2013-07-17 01:32:00,
2013-07-16 21:43:00,79.0,73.0,30.31,NNE,31,0.0,1.0,83,0.00,,,0.08,,2013-07-17 01:43:00,
2013-07-16 21:53:00,79.0,73.0,30.31,NNE,31,0.0,1.0,83,0.00,,,0.08,,2013-07-17 01:53:00,
2013-07-16 22:01:00,77.0,72.0,30.29,NNE,31,0.0,0.0,85,0.01,,,0.02,,2013-07-17 02:01:00,
2013-07-16 22:22:00,76.0,72.0,30.30,NNE,31,0.0,0.0,86,0.02,,,0.03,,2013-07-17 02:22:00,
2013-07-16 22:32:00,75.0,71.0,30.29,NNE,31,0.0,0.0,88,0.02,,,0.03,,2013-07-17 02:32:00,
2013-07-16 22:43:00,74.0,71.0,30.29,NNE,24,0.0,1.0,89,0.02,,,0.03,,2013-07-17 02:43:00,
2013-07-16 22:53:00,74.0,71.0,30.29,NNE,24,0.0,1.0,89,0.02,,,0.03,,2013-07-17 02:53:00,
2013-07-16 23:01:00,74.0,71.0,30.29,NNE,24,0.0,0.0,90,0.01,,,0.03,,2013-07-17 03:01:00,
2013-07-16 23:22:00,74.0,71.0,30.30,NNE,24,0.0,0.0,91,0.00,,,0.03,,2013-07-17 03:22:00,
2013-07-16 23:32:00,74.0,71.0,30.30,NNE,24,0.0,0.0,91,0.00,,,0.03,,2013-07-17 03:32:00,
2013-07-16 23:43:00,74.0,71.0,30.30,NNE,24,0.0,0.0,91,0.00,,,0.03,,2013-07-17 03:43:00,